Location: Unspecified
(33.6682°S, 0.0000°E)
Time: 18:30:08
(UTC+00:00)

Transit 4A - All Passes

Search period start: 25 June 2019 00:00
Search period end: 05 July 2019 00:00
Orbit: 862 x 983 km, 66.8° (Epoch: 24 June)

Date Brightness Start Highest point End Pass type
(mag) Time Alt. Az. Time Alt. Az. Time Alt. Az.
25 Jun - 03:50:09 10° S 03:55:13 29° SE 04:00:21 10° ENE visible
25 Jun - 05:36:09 10° SW 05:41:34 38° WNW 05:47:06 10° N visible
25 Jun - 18:52:14 10° NNW 18:58:11 85° ENE 19:04:04 10° SSE visible
25 Jun - 20:42:13 10° W 20:45:13 14° SW 20:48:13 10° SSW visible
26 Jun - 03:59:05 10° SSW 04:04:42 43° ESE 04:10:25 10° NE visible
26 Jun - 05:46:04 10° SW 05:50:44 24° WNW 05:55:28 10° NNW visible
26 Jun - 17:18:26 10° NE 17:21:47 16° ENE 17:25:07 10° ESE visible
26 Jun - 19:01:39 10° NW 19:07:32 63° WSW 19:13:20 10° SSE visible
27 Jun - 04:08:13 10° SSW 04:14:06 67° ESE 04:20:08 10° NE visible
27 Jun - 05:56:38 10° WSW 05:59:50 15° WNW 06:03:04 10° NW visible
27 Jun - 17:26:09 10° NNE 17:30:54 25° ENE 17:35:35 10° SE visible
27 Jun - 19:11:24 10° NW 19:16:57 40° WSW 19:22:27 10° S visible
28 Jun - 02:33:08 10° SSE 02:36:29 15° SE 02:39:51 10° E visible
28 Jun - 04:17:30 10° SSW 04:23:26 80° WNW 04:29:30 10° NNE visible
28 Jun - 17:34:34 10° N 17:40:04 40° ENE 17:45:29 10° SE visible
28 Jun - 19:21:31 10° WNW 19:26:27 27° SW 19:31:21 10° S visible
29 Jun - 02:41:34 10° S 02:46:08 23° SE 02:50:46 10° ENE visible
29 Jun - 04:26:59 10° SW 04:32:43 51° WNW 04:38:33 10° N visible
29 Jun - 17:43:26 10° NNW 17:49:17 64° ENE 17:55:04 10° SSE visible
29 Jun - 19:32:07 10° W 19:36:03 18° SW 19:39:59 10° S visible
30 Jun - 02:50:22 10° S 02:55:41 33° ESE 03:01:05 10° ENE visible
30 Jun - 04:36:41 10° SW 04:41:55 32° WNW 04:47:13 10° N visible
30 Jun - 16:11:38 10° ENE 16:13:02 11° ENE 16:14:26 10° E daylight
30 Jun - 17:52:39 10° NNW 17:58:35 83° WSW 18:04:27 10° SSE visible
30 Jun - 19:43:35 10° WSW 19:45:46 12° SW 19:47:57 10° SSW visible
01 Jul - 02:59:22 10° SSW 03:05:09 51° ESE 03:11:01 10° NE visible
01 Jul - 04:46:48 10° WSW 04:51:04 21° WNW 04:55:23 10° NNW visible
01 Jul - 16:18:08 10° NNE 16:22:06 19° ENE 16:26:01 10° ESE daylight
01 Jul - 18:02:11 10° NW 18:07:57 53° WSW 18:13:41 10° SSE visible
02 Jul - 01:25:16 10° SSE 01:27:18 12° SE 01:29:20 10° ESE night (unlit)
02 Jul - 03:08:34 10° SSW 03:14:32 78° ESE 03:20:36 10° NNE visible
02 Jul - 04:57:51 10° W 05:00:09 12° WNW 05:02:27 10° NW visible
02 Jul - 16:26:10 10° NNE 16:31:14 30° ENE 16:36:14 10° SE daylight
02 Jul - 18:12:03 10° WNW 18:17:24 35° WSW 18:22:43 10° S visible
03 Jul - 01:33:07 10° S 01:37:01 18° SE 01:40:56 10° E night (unlit)
03 Jul - 03:17:55 10° SSW 03:23:50 69° WNW 03:29:52 10° NNE night (unlit)
03 Jul - 16:34:46 10° N 16:40:24 47° ENE 16:46:00 10° SE daylight
03 Jul - 18:22:20 10° WNW 18:26:56 23° SW 18:31:32 10° S visible
04 Jul - 01:41:44 10° S 01:46:37 26° SE 01:51:36 10° ENE night (unlit)
04 Jul - 03:27:29 10° SW 03:33:05 43° WNW 03:38:48 10° N night (unlit)
04 Jul - 16:43:46 10° NNW 16:49:40 75° ENE 16:55:30 10° SSE daylight
04 Jul - 18:33:09 10° W 18:36:35 16° SW 18:40:00 10° SSW visible
